Year,Month,Day,Hour,Minute,Value (Times are PST for temperature in C)
2014,09,15,00,00,15.00
2014,09,15,00,01,15.00
2014,09,15,00,02,14.90
2014,09,15,00,03,14.90
2014,09,15,00,04,14.90
2014,09,15,00,05,14.80
2014,09,15,00,06,14.80
2014,09,15,00,07,14.80
2014,09,15,00,08,14.80
2014,09,15,00,09,14.70
2014,09,15,00,10,14.70
2014,09,15,00,11,14.70
2014,09,15,00,12,14.60
2014,09,15,00,13,14.60
2014,09,15,00,14,14.60
2014,09,15,00,15,14.60
2014,09,15,00,16,14.50
2014,09,15,00,17,14.50
2014,09,15,00,18,14.40
2014,09,15,00,19,14.40
2014,09,15,00,20,14.40
2014,09,15,00,21,14.40
2014,09,15,00,22,14.40
2014,09,15,00,23,14.40
2014,09,15,00,24,14.40
2014,09,15,00,25,14.40
2014,09,15,00,26,14.30
2014,09,15,00,27,14.30
2014,09,15,00,28,14.30
2014,09,15,00,29,14.30
2014,09,15,00,30,14.30
2014,09,15,00,31,14.30
2014,09,15,00,32,14.30
2014,09,15,00,33,14.20
2014,09,15,00,34,14.20
2014,09,15,00,35,14.20
2014,09,15,00,36,14.20
2014,09,15,00,37,14.20
2014,09,15,00,38,14.10
2014,09,15,00,39,14.10
2014,09,15,00,40,14.10
2014,09,15,00,41,14.10
2014,09,15,00,42,14.10
2014,09,15,00,43,14.10
2014,09,15,00,44,14.00
2014,09,15,00,45,14.00
2014,09,15,00,46,13.90
2014,09,15,00,47,13.90
2014,09,15,00,48,13.90
2014,09,15,00,49,13.90
2014,09,15,00,50,13.80
2014,09,15,00,51,13.80
2014,09,15,00,52,13.80
2014,09,15,00,53,13.70
2014,09,15,00,54,13.70
2014,09,15,00,55,13.70
2014,09,15,00,56,13.60
2014,09,15,00,57,13.60
2014,09,15,00,58,13.60
2014,09,15,00,59,13.50
2014,09,15,01,00,13.50
2014,09,15,01,01,13.40
2014,09,15,01,02,13.40
2014,09,15,01,03,13.40
2014,09,15,01,04,13.30
2014,09,15,01,05,13.30
2014,09,15,01,06,13.30
2014,09,15,01,07,13.30
2014,09,15,01,08,13.30
2014,09,15,01,09,13.30
2014,09,15,01,10,13.20
2014,09,15,01,11,13.20
2014,09,15,01,12,13.20
2014,09,15,01,13,13.20
2014,09,15,01,14,13.20
2014,09,15,01,15,13.20
2014,09,15,01,16,13.10
2014,09,15,01,17,13.10
2014,09,15,01,18,13.10
2014,09,15,01,19,13.10
2014,09,15,01,20,13.10
2014,09,15,01,21,13.10
2014,09,15,01,22,13.00
2014,09,15,01,23,13.00
2014,09,15,01,24,13.00
2014,09,15,01,25,12.90
2014,09,15,01,26,12.90
2014,09,15,01,27,12.90
2014,09,15,01,29,12.90
2014,09,15,01,30,12.90
2014,09,15,01,31,12.80
2014,09,15,01,32,12.80
2014,09,15,01,33,12.80
2014,09,15,01,34,12.80
2014,09,15,01,35,12.80
2014,09,15,01,36,12.80
2014,09,15,01,37,12.80
2014,09,15,01,38,12.80
2014,09,15,01,39,12.70
2014,09,15,01,40,12.70
2014,09,15,01,41,12.70
2014,09,15,01,42,12.70
2014,09,15,01,43,12.70
2014,09,15,01,44,12.70
2014,09,15,01,45,12.70
2014,09,15,01,46,12.70
2014,09,15,01,47,12.60
2014,09,15,01,48,12.60
2014,09,15,01,49,12.60
2014,09,15,01,50,12.60
2014,09,15,01,51,12.60
2014,09,15,01,52,12.50
2014,09,15,01,53,12.50
2014,09,15,01,54,12.50
2014,09,15,01,55,12.40
2014,09,15,01,56,12.40
2014,09,15,01,57,12.40
2014,09,15,01,58,12.40
2014,09,15,01,59,12.30
2014,09,15,02,00,12.30
2014,09,15,02,02,12.30
2014,09,15,02,03,12.20
2014,09,15,02,04,12.20
2014,09,15,02,05,12.20
2014,09,15,02,06,12.20
2014,09,15,02,07,12.10
2014,09,15,02,08,12.10
2014,09,15,02,09,12.10
2014,09,15,02,10,12.10
2014,09,15,02,11,12.10
2014,09,15,02,12,12.00
2014,09,15,02,13,11.90
2014,09,15,02,14,11.90
2014,09,15,02,15,11.90
2014,09,15,02,16,11.90
2014,09,15,02,17,11.80
2014,09,15,02,18,11.80
2014,09,15,02,19,11.80
2014,09,15,02,20,11.80
2014,09,15,02,21,11.80
2014,09,15,02,22,11.70
2014,09,15,02,23,11.70
2014,09,15,02,24,11.70
2014,09,15,02,25,11.70
2014,09,15,02,26,11.70
2014,09,15,02,27,11.60
2014,09,15,02,28,11.60
2014,09,15,02,29,11.60
2014,09,15,02,30,11.60
2014,09,15,02,31,11.60
2014,09,15,02,32,11.60
2014,09,15,02,33,11.60
2014,09,15,02,34,11.60
2014,09,15,02,35,11.60
2014,09,15,02,36,11.60
2014,09,15,02,37,11.50
2014,09,15,02,38,11.50
2014,09,15,02,39,11.50
2014,09,15,02,40,11.50
2014,09,15,02,41,11.40
2014,09,15,02,42,11.40
2014,09,15,02,43,11.40
2014,09,15,02,44,11.40
2014,09,15,02,45,11.40
2014,09,15,02,46,11.40
2014,09,15,02,47,11.40
2014,09,15,02,48,11.40
2014,09,15,02,49,11.40
2014,09,15,02,50,11.30
2014,09,15,02,51,11.30
2014,09,15,02,52,11.30
2014,09,15,02,53,11.30
2014,09,15,02,54,11.30
2014,09,15,02,55,11.30
2014,09,15,02,56,11.30
2014,09,15,02,57,11.20
2014,09,15,02,58,11.20
2014,09,15,02,59,11.20
2014,09,15,03,00,11.20
2014,09,15,03,01,11.20
2014,09,15,03,02,11.20
2014,09,15,03,03,11.20
2014,09,15,03,04,11.20
2014,09,15,03,05,11.10
2014,09,15,03,06,11.10
2014,09,15,03,07,11.10
2014,09,15,03,08,11.10
2014,09,15,03,09,11.00
2014,09,15,03,10,11.00
2014,09,15,03,11,11.00
2014,09,15,03,12,10.90
2014,09,15,03,13,10.90
2014,09,15,03,14,10.90
2014,09,15,03,15,10.80
2014,09,15,03,16,10.80
2014,09,15,03,17,10.80
2014,09,15,03,18,10.80
2014,09,15,03,19,10.80
2014,09,15,03,20,10.70
2014,09,15,03,21,10.70
2014,09,15,03,22,10.70
2014,09,15,03,23,10.70
2014,09,15,03,24,10.70
2014,09,15,03,25,10.70
2014,09,15,03,26,10.70
2014,09,15,03,27,10.60
2014,09,15,03,28,10.60
2014,09,15,03,29,10.60
2014,09,15,03,30,10.60
2014,09,15,03,31,10.60
2014,09,15,03,32,10.60
2014,09,15,03,33,10.60
2014,09,15,03,34,10.60
2014,09,15,03,35,10.60
2014,09,15,03,36,10.60
2014,09,15,03,37,10.60
2014,09,15,03,38,10.60
2014,09,15,03,39,10.60
2014,09,15,03,40,10.50
2014,09,15,03,41,10.50
2014,09,15,03,42,10.50
2014,09,15,03,43,10.50
2014,09,15,03,44,10.50
2014,09,15,03,45,10.50
2014,09,15,03,46,10.40
2014,09,15,03,47,10.40
2014,09,15,03,48,10.40
2014,09,15,03,49,10.40
2014,09,15,03,50,10.40
2014,09,15,03,51,10.40
2014,09,15,03,52,10.40
2014,09,15,03,53,10.40
2014,09,15,03,54,10.40
2014,09,15,03,55,10.40
2014,09,15,03,56,10.40
2014,09,15,03,57,10.40
2014,09,15,03,58,10.40
2014,09,15,04,00,10.40
2014,09,15,04,01,10.40
2014,09,15,04,02,10.40
2014,09,15,04,03,10.40
2014,09,15,04,04,10.30
2014,09,15,04,05,10.30
2014,09,15,04,06,10.30
2014,09,15,04,07,10.30
2014,09,15,04,08,10.30
2014,09,15,04,09,10.30
2014,09,15,04,10,10.30
2014,09,15,04,11,10.20
2014,09,15,04,12,10.20
2014,09,15,04,13,10.20
2014,09,15,04,14,10.20
2014,09,15,04,15,10.20
2014,09,15,04,16,10.20
2014,09,15,04,17,10.20
2014,09,15,04,18,10.20
2014,09,15,04,19,10.10
2014,09,15,04,20,10.10
2014,09,15,04,21,10.10
2014,09,15,04,22,10.10
2014,09,15,04,23,10.10
2014,09,15,04,24,10.10
2014,09,15,04,25,10.10
2014,09,15,04,26,10.10
2014,09,15,04,27,10.10
2014,09,15,04,28,10.10
2014,09,15,04,29,10.00
2014,09,15,04,30,10.00
2014,09,15,04,31,10.00
2014,09,15,04,32,10.00
2014,09,15,04,33,9.90
2014,09,15,04,34,9.90
2014,09,15,04,35,9.90
2014,09,15,04,36,9.90
2014,09,15,04,37,9.90
2014,09,15,04,38,9.90
2014,09,15,04,40,9.80
2014,09,15,04,41,9.80
2014,09,15,04,42,9.80
2014,09,15,04,43,9.80
2014,09,15,04,44,9.80
2014,09,15,04,45,9.80
2014,09,15,04,46,9.70
2014,09,15,04,47,9.70
2014,09,15,04,48,9.70
2014,09,15,04,49,9.70
2014,09,15,04,50,9.70
2014,09,15,04,51,9.70
2014,09,15,04,52,9.60
2014,09,15,04,53,9.60
2014,09,15,04,54,9.60
2014,09,15,04,55,9.60
2014,09,15,04,56,9.60
2014,09,15,04,57,9.60
2014,09,15,04,58,9.60
2014,09,15,04,59,9.60
2014,09,15,05,00,9.60
2014,09,15,05,01,9.50
2014,09,15,05,02,9.50
2014,09,15,05,03,9.50
2014,09,15,05,04,9.40
2014,09,15,05,05,9.40
2014,09,15,05,06,9.40
2014,09,15,05,07,9.40
2014,09,15,05,08,9.40
2014,09,15,05,09,9.40
2014,09,15,05,10,9.40
2014,09,15,05,11,9.40
2014,09,15,05,12,9.30
2014,09,15,05,13,9.30
2014,09,15,05,14,9.30
2014,09,15,05,15,9.30
2014,09,15,05,16,9.30
2014,09,15,05,17,9.30
2014,09,15,05,18,9.30
2014,09,15,05,19,9.30
2014,09,15,05,20,9.30
2014,09,15,05,21,9.30
2014,09,15,05,22,9.20
2014,09,15,05,23,9.20
2014,09,15,05,24,9.30
2014,09,15,05,25,9.20
2014,09,15,05,26,9.20
2014,09,15,05,27,9.20
2014,09,15,05,28,9.20
2014,09,15,05,29,9.20
2014,09,15,05,30,9.20
2014,09,15,05,31,9.30
2014,09,15,05,32,9.30
2014,09,15,05,33,9.30
2014,09,15,05,34,9.30
2014,09,15,05,35,9.30
2014,09,15,05,36,9.30
2014,09,15,05,37,9.30
2014,09,15,05,38,9.30
2014,09,15,05,39,9.30
2014,09,15,05,40,9.30
2014,09,15,05,41,9.20
2014,09,15,05,42,9.20
2014,09,15,05,43,9.20
2014,09,15,05,44,9.20
2014,09,15,05,45,9.20
2014,09,15,05,46,9.20
2014,09,15,05,47,9.10
2014,09,15,05,48,9.10
2014,09,15,05,49,9.10
2014,09,15,05,50,9.10
2014,09,15,05,51,9.00
2014,09,15,05,52,9.00
2014,09,15,05,53,9.00
2014,09,15,05,54,9.00
2014,09,15,05,55,8.90
2014,09,15,05,56,8.90
2014,09,15,05,58,8.90
2014,09,15,05,59,8.90
2014,09,15,06,00,8.90
2014,09,15,06,02,8.90
2014,09,15,06,03,8.90
2014,09,15,06,05,8.80
2014,09,15,06,06,8.80
2014,09,15,06,08,8.80
2014,09,15,06,09,8.80
2014,09,15,06,10,8.80
2014,09,15,06,12,8.80
2014,09,15,06,14,8.80
2014,09,15,06,16,8.70
2014,09,15,06,18,8.70
2014,09,15,06,19,8.70
2014,09,15,06,20,8.70
2014,09,15,06,21,8.70
2014,09,15,06,22,8.70
2014,09,15,06,23,8.70
2014,09,15,06,24,8.70
2014,09,15,06,25,8.60
2014,09,15,06,26,8.60
2014,09,15,06,27,8.60
2014,09,15,06,28,8.60
2014,09,15,06,30,8.60
2014,09,15,06,31,8.50
2014,09,15,06,32,8.50
2014,09,15,06,33,8.50
2014,09,15,06,34,8.50
2014,09,15,06,35,8.50
2014,09,15,06,36,8.50
2014,09,15,06,37,8.50
2014,09,15,06,38,8.50
2014,09,15,06,39,8.40
2014,09,15,06,40,8.50
2014,09,15,06,41,8.50
2014,09,15,06,42,8.50
2014,09,15,06,43,8.50
2014,09,15,06,44,8.50
2014,09,15,06,45,8.40
2014,09,15,06,46,8.40
2014,09,15,06,47,8.40
2014,09,15,06,48,8.40
2014,09,15,06,49,8.40
2014,09,15,06,50,8.40
2014,09,15,06,51,8.40
2014,09,15,06,52,8.40
2014,09,15,06,53,8.40
2014,09,15,06,54,8.40
2014,09,15,06,55,8.40
2014,09,15,06,56,8.40
2014,09,15,06,57,8.40
2014,09,15,06,58,8.40
2014,09,15,06,59,8.40
2014,09,15,07,00,8.40
2014,09,15,07,01,8.40
2014,09,15,07,02,8.40
2014,09,15,07,03,8.40
2014,09,15,07,05,8.40
2014,09,15,07,06,8.40
2014,09,15,07,07,8.40
2014,09,15,07,08,8.40
2014,09,15,07,09,8.40
2014,09,15,07,10,8.40
2014,09,15,07,11,8.40
2014,09,15,07,12,8.40
2014,09,15,07,13,8.40
2014,09,15,07,14,8.40
2014,09,15,07,15,8.30
2014,09,15,07,16,8.30
2014,09,15,07,17,8.30
2014,09,15,07,18,8.30
2014,09,15,07,19,8.30
2014,09,15,07,20,8.30
2014,09,15,07,21,8.30
2014,09,15,07,22,8.30
2014,09,15,07,23,8.30
2014,09,15,07,24,8.20
2014,09,15,07,25,8.20
2014,09,15,07,26,8.20
2014,09,15,07,27,8.20
2014,09,15,07,28,8.20
2014,09,15,07,29,8.20
2014,09,15,07,30,8.20
2014,09,15,07,31,8.20
2014,09,15,07,32,8.20
2014,09,15,07,33,8.20
2014,09,15,07,34,8.20
2014,09,15,07,35,8.20
2014,09,15,07,36,8.30
2014,09,15,07,37,8.30
2014,09,15,07,38,8.30
2014,09,15,07,39,8.30
2014,09,15,07,40,8.30
2014,09,15,07,41,8.30
2014,09,15,07,42,8.30
2014,09,15,07,43,8.30
2014,09,15,07,44,8.30
2014,09,15,07,45,8.40
2014,09,15,07,46,8.40
2014,09,15,07,47,8.40
2014,09,15,07,48,8.40
2014,09,15,07,49,8.40
2014,09,15,07,50,8.50
2014,09,15,07,51,8.60
2014,09,15,07,52,8.60
2014,09,15,07,53,8.60
2014,09,15,07,54,8.60
2014,09,15,07,55,8.70
2014,09,15,07,56,8.70
2014,09,15,07,57,8.80
2014,09,15,07,58,8.80
2014,09,15,07,59,8.80
2014,09,15,08,00,8.80
2014,09,15,08,01,8.90
2014,09,15,08,02,8.90
2014,09,15,08,03,8.90
2014,09,15,08,04,9.00
2014,09,15,08,05,9.00
2014,09,15,08,06,9.00
2014,09,15,08,07,9.10
2014,09,15,08,08,9.10
2014,09,15,08,09,9.10
2014,09,15,08,10,9.10
2014,09,15,08,11,9.10
2014,09,15,08,12,9.20
2014,09,15,08,13,9.20
2014,09,15,08,14,9.30
2014,09,15,08,15,9.30
2014,09,15,08,16,9.40
2014,09,15,08,17,9.40
2014,09,15,08,18,9.50
2014,09,15,08,19,9.60
2014,09,15,08,20,9.70
2014,09,15,08,21,9.70
2014,09,15,08,22,9.80
2014,09,15,08,23,9.90
2014,09,15,08,24,10.00
2014,09,15,08,25,10.10
2014,09,15,08,26,10.20
2014,09,15,08,27,10.20
2014,09,15,08,28,10.30
2014,09,15,08,29,10.30
2014,09,15,08,30,10.40
2014,09,15,08,31,10.40
2014,09,15,08,32,10.50
2014,09,15,08,33,10.60
2014,09,15,08,34,10.60
2014,09,15,08,35,10.70
2014,09,15,08,36,10.70
2014,09,15,08,37,10.70
2014,09,15,08,38,10.80
2014,09,15,08,39,10.90
2014,09,15,08,40,10.90
2014,09,15,08,41,11.00
2014,09,15,08,42,11.10
2014,09,15,08,43,11.10
2014,09,15,08,45,11.20
2014,09,15,08,46,11.30
2014,09,15,08,47,11.30
2014,09,15,08,48,11.30
2014,09,15,08,49,11.40
2014,09,15,08,50,11.50
2014,09,15,08,51,11.60
2014,09,15,08,52,11.60
2014,09,15,08,53,11.70
2014,09,15,08,54,11.70
2014,09,15,08,55,11.80
2014,09,15,08,56,11.80
2014,09,15,08,57,11.90
2014,09,15,08,58,12.00
2014,09,15,08,59,12.10
2014,09,15,09,00,12.20
2014,09,15,09,01,12.20
2014,09,15,09,02,12.30
2014,09,15,09,03,12.40
2014,09,15,09,04,12.50
2014,09,15,09,05,12.60
2014,09,15,09,06,12.70
2014,09,15,09,07,12.70
2014,09,15,09,08,12.80
2014,09,15,09,09,12.80
2014,09,15,09,10,12.90
2014,09,15,09,11,13.00
2014,09,15,09,12,13.10
2014,09,15,09,13,13.20
2014,09,15,09,14,13.20
2014,09,15,09,15,13.30
2014,09,15,09,16,13.30
2014,09,15,09,17,13.40
2014,09,15,09,18,13.50
2014,09,15,09,19,13.60
2014,09,15,09,20,13.70
2014,09,15,09,21,13.70
2014,09,15,09,22,13.80
2014,09,15,09,23,13.80
2014,09,15,09,24,13.90
2014,09,15,09,25,13.90
2014,09,15,09,26,14.10
2014,09,15,09,27,14.10
2014,09,15,09,28,14.20
2014,09,15,09,29,14.20
2014,09,15,09,30,14.30
2014,09,15,09,31,14.40
2014,09,15,09,32,14.40
2014,09,15,09,33,14.50
2014,09,15,09,34,14.60
2014,09,15,09,35,14.60
2014,09,15,09,36,14.70
2014,09,15,09,37,14.80
2014,09,15,09,38,14.80
2014,09,15,09,39,14.80
2014,09,15,09,40,14.90
2014,09,15,09,41,14.90
2014,09,15,09,42,15.00
2014,09,15,09,44,15.10
2014,09,15,09,45,15.10
2014,09,15,09,46,15.20
2014,09,15,09,47,15.20
2014,09,15,09,48,15.30
2014,09,15,09,49,15.30
2014,09,15,09,50,15.40
2014,09,15,09,51,15.50
2014,09,15,09,52,15.60
2014,09,15,09,53,15.60
2014,09,15,09,54,15.70
2014,09,15,09,55,15.80
2014,09,15,09,56,15.90
2014,09,15,09,57,15.90
2014,09,15,09,58,16.00
2014,09,15,09,59,16.10
2014,09,15,10,00,16.20
2014,09,15,10,01,16.30
2014,09,15,10,02,16.30
2014,09,15,10,03,16.40
2014,09,15,10,04,16.40
2014,09,15,10,05,16.40
2014,09,15,10,06,16.50
2014,09,15,10,07,16.60
2014,09,15,10,08,16.60
2014,09,15,10,09,16.70
2014,09,15,10,10,16.70
2014,09,15,10,12,16.90
2014,09,15,10,13,16.90
2014,09,15,10,14,17.10
2014,09,15,10,15,17.10
2014,09,15,10,16,17.20
2014,09,15,10,17,17.20
2014,09,15,10,18,17.30
2014,09,15,10,19,17.30
2014,09,15,10,20,17.40
2014,09,15,10,21,17.40
2014,09,15,10,22,17.50
2014,09,15,10,23,17.60
2014,09,15,10,24,17.60
2014,09,15,10,25,17.70
2014,09,15,10,26,17.80
2014,09,15,10,27,17.80
2014,09,15,10,28,17.90
2014,09,15,10,29,18.10
2014,09,15,10,30,18.10
2014,09,15,10,31,18.20
2014,09,15,10,32,18.20
2014,09,15,10,33,18.30
2014,09,15,10,34,18.40
2014,09,15,10,35,18.40
2014,09,15,10,36,18.60
2014,09,15,10,37,18.60
2014,09,15,10,38,18.70
2014,09,15,10,39,18.80
2014,09,15,10,40,18.80
2014,09,15,10,41,18.90
2014,09,15,10,42,19.00
2014,09,15,10,43,19.10
2014,09,15,10,44,19.10
2014,09,15,10,45,19.20
2014,09,15,10,46,19.30
2014,09,15,10,47,19.30
2014,09,15,10,48,19.40
2014,09,15,10,49,19.40
2014,09,15,10,50,19.40
2014,09,15,10,51,19.40
2014,09,15,10,52,19.50
2014,09,15,10,53,19.60
2014,09,15,10,54,19.60
2014,09,15,10,55,19.70
2014,09,15,10,56,19.70
2014,09,15,10,57,19.80
2014,09,15,10,58,19.90
2014,09,15,10,59,20.00
2014,09,15,11,00,20.10
2014,09,15,11,01,20.10
2014,09,15,11,02,20.20
2014,09,15,11,03,20.20
2014,09,15,11,04,20.20
2014,09,15,11,05,20.20
2014,09,15,11,06,20.50
2014,09,15,11,07,20.60
2014,09,15,11,08,20.60
2014,09,15,11,10,20.70
2014,09,15,11,11,20.70
2014,09,15,11,12,20.70
2014,09,15,11,13,20.80
2014,09,15,11,14,20.80
2014,09,15,11,15,20.80
2014,09,15,11,16,20.90
2014,09,15,11,17,20.90
2014,09,15,11,18,20.90
2014,09,15,11,19,20.90
2014,09,15,11,20,20.90
2014,09,15,11,21,20.90
2014,09,15,11,22,20.90
2014,09,15,11,23,20.90
2014,09,15,11,24,21.00
2014,09,15,11,25,21.10
2014,09,15,11,26,21.20
2014,09,15,11,27,21.20
2014,09,15,11,28,21.30
2014,09,15,11,29,21.40
2014,09,15,11,30,21.50
2014,09,15,11,31,21.60
2014,09,15,11,32,21.70
2014,09,15,11,33,21.80
2014,09,15,11,34,21.90
2014,09,15,11,35,22.10
2014,09,15,11,36,22.20
2014,09,15,11,37,22.30
2014,09,15,11,38,22.30
2014,09,15,11,39,22.40
2014,09,15,11,40,22.60
2014,09,15,11,41,22.70
2014,09,15,11,42,22.80
2014,09,15,11,43,22.90
2014,09,15,11,44,23.00
2014,09,15,11,45,23.10
2014,09,15,11,46,23.20
2014,09,15,11,47,23.20
2014,09,15,11,48,23.30
2014,09,15,11,49,23.40
2014,09,15,11,50,23.40
2014,09,15,11,51,23.50
2014,09,15,11,52,23.60
2014,09,15,11,53,23.60
2014,09,15,11,54,23.70
2014,09,15,11,55,23.70
2014,09,15,11,56,23.70
2014,09,15,11,57,23.70
2014,09,15,11,58,23.80
2014,09,15,11,59,23.80
2014,09,15,12,00,23.80
2014,09,15,12,01,23.80
2014,09,15,12,02,23.80
2014,09,15,12,04,23.80
2014,09,15,12,05,23.80
2014,09,15,12,06,23.80
2014,09,15,12,07,23.80
2014,09,15,12,08,23.80
2014,09,15,12,09,23.80
2014,09,15,12,10,23.80
2014,09,15,12,11,23.80
2014,09,15,12,12,23.80
2014,09,15,12,13,23.80
2014,09,15,12,14,23.80
2014,09,15,12,15,23.80
2014,09,15,12,16,23.80
2014,09,15,12,17,23.80
2014,09,15,12,18,23.80
2014,09,15,12,19,23.80
2014,09,15,12,20,23.80
2014,09,15,12,21,23.90
2014,09,15,12,22,23.90
2014,09,15,12,23,23.90
2014,09,15,12,24,23.90
2014,09,15,12,25,23.90
2014,09,15,12,26,23.90
2014,09,15,12,27,23.90
2014,09,15,12,28,23.90
2014,09,15,12,30,24.10
2014,09,15,12,31,24.20
2014,09,15,12,32,24.20
2014,09,15,12,33,24.30
2014,09,15,12,34,24.30
2014,09,15,12,35,24.30
2014,09,15,12,36,24.40
2014,09,15,12,37,24.30
2014,09,15,12,38,24.30
2014,09,15,12,39,24.30
2014,09,15,12,40,24.30
2014,09,15,12,41,24.30
2014,09,15,12,42,24.40
2014,09,15,12,43,24.50
2014,09,15,12,44,24.60
2014,09,15,12,45,24.60
2014,09,15,12,46,24.70
2014,09,15,12,47,24.70
2014,09,15,12,49,24.70
2014,09,15,12,50,24.80
2014,09,15,12,51,24.80
2014,09,15,12,52,24.90
2014,09,15,12,53,25.00
2014,09,15,12,54,25.10
2014,09,15,12,55,25.20
2014,09,15,12,56,25.20
2014,09,15,12,57,25.30
2014,09,15,12,58,25.30
2014,09,15,12,59,25.40
2014,09,15,13,00,25.40
2014,09,15,13,01,25.40
2014,09,15,13,02,25.50
2014,09,15,13,03,25.60
2014,09,15,13,04,25.60
2014,09,15,13,05,25.70
2014,09,15,13,06,25.70
2014,09,15,13,07,25.70
2014,09,15,13,08,25.80
2014,09,15,13,09,25.80
2014,09,15,13,10,25.80
2014,09,15,13,11,25.80
2014,09,15,13,12,25.80
2014,09,15,13,13,25.90
2014,09,15,13,14,25.90
2014,09,15,13,15,26.10
2014,09,15,13,16,26.20
2014,09,15,13,17,26.30
2014,09,15,13,18,26.40
2014,09,15,13,19,26.40
2014,09,15,13,20,26.50
2014,09,15,13,21,26.50
2014,09,15,13,22,26.60
2014,09,15,13,23,26.60
2014,09,15,13,24,26.60
2014,09,15,13,25,26.70
2014,09,15,13,26,26.80
2014,09,15,13,27,26.80
2014,09,15,13,28,26.90
2014,09,15,13,29,27.00
2014,09,15,13,30,27.10
2014,09,15,13,31,27.20
2014,09,15,13,32,27.30
2014,09,15,13,33,27.40
2014,09,15,13,34,27.40
2014,09,15,13,35,27.50
2014,09,15,13,36,27.60
2014,09,15,13,37,27.60
2014,09,15,13,38,27.60
2014,09,15,13,39,27.60
2014,09,15,13,40,27.60
2014,09,15,13,41,27.70
2014,09,15,13,42,27.70
2014,09,15,13,43,27.70
2014,09,15,13,44,27.70
2014,09,15,13,45,27.80
2014,09,15,13,46,27.80
2014,09,15,13,47,27.90
2014,09,15,13,48,27.90
2014,09,15,13,49,27.90
2014,09,15,13,50,28.00
2014,09,15,13,51,28.10
2014,09,15,13,52,28.10
2014,09,15,13,53,28.20
2014,09,15,13,54,28.20
2014,09,15,13,55,28.30
2014,09,15,13,56,28.30
2014,09,15,13,57,28.40
2014,09,15,13,58,28.40
2014,09,15,13,59,28.40
2014,09,15,14,00,28.40
2014,09,15,14,01,28.40
2014,09,15,14,02,28.40
2014,09,15,14,03,28.50
2014,09,15,14,04,28.60
2014,09,15,14,05,28.60
2014,09,15,14,06,28.70
2014,09,15,14,07,28.70
2014,09,15,14,08,28.80
2014,09,15,14,09,28.80
2014,09,15,14,10,28.80
2014,09,15,14,11,28.90
2014,09,15,14,12,28.90
2014,09,15,14,13,29.00
2014,09,15,14,14,29.10
2014,09,15,14,16,29.20
2014,09,15,14,17,29.30
2014,09,15,14,18,29.30
2014,09,15,14,19,29.40
2014,09,15,14,20,29.40
2014,09,15,14,21,29.40
2014,09,15,14,22,29.50
2014,09,15,14,23,29.50
2014,09,15,14,24,29.50
2014,09,15,14,25,29.60
2014,09,15,14,26,29.60
2014,09,15,14,27,29.60
2014,09,15,14,28,29.70
2014,09,15,14,29,29.80
2014,09,15,14,30,29.80
2014,09,15,14,31,29.90
2014,09,15,14,32,30.00
2014,09,15,14,33,30.10
2014,09,15,14,34,30.20
2014,09,15,14,35,30.20
2014,09,15,14,36,30.30
2014,09,15,14,38,30.30
2014,09,15,14,39,30.30
2014,09,15,14,40,30.30
2014,09,15,14,41,30.40
2014,09,15,14,42,30.40
2014,09,15,14,43,30.40
2014,09,15,14,44,30.40
2014,09,15,14,45,30.50
2014,09,15,14,46,30.50
2014,09,15,14,47,30.60
2014,09,15,14,48,30.60
2014,09,15,14,49,30.60
2014,09,15,14,50,30.60
2014,09,15,14,51,30.60
2014,09,15,14,52,30.70
2014,09,15,14,53,30.70
2014,09,15,14,54,30.70
2014,09,15,14,55,30.70
2014,09,15,14,56,30.70
2014,09,15,14,57,30.70
2014,09,15,14,58,30.80
2014,09,15,14,59,30.70
2014,09,15,15,00,30.70
2014,09,15,15,01,30.70
2014,09,15,15,02,30.70
2014,09,15,15,03,30.70
2014,09,15,15,04,30.70
2014,09,15,15,05,30.80
2014,09,15,15,06,30.80
2014,09,15,15,07,30.90
2014,09,15,15,08,30.90
2014,09,15,15,10,31.10
2014,09,15,15,11,31.20
2014,09,15,15,12,31.20
2014,09,15,15,13,31.30
2014,09,15,15,14,31.30
2014,09,15,15,15,31.30
2014,09,15,15,16,31.30
2014,09,15,15,17,31.30
2014,09,15,15,18,31.30
2014,09,15,15,19,31.30
2014,09,15,15,20,31.30
2014,09,15,15,21,31.30
2014,09,15,15,22,31.30
2014,09,15,15,23,31.30
2014,09,15,15,24,31.30
2014,09,15,15,25,31.30
2014,09,15,15,27,31.20
2014,09,15,15,28,31.20
2014,09,15,15,29,31.20
2014,09,15,15,30,31.10
2014,09,15,15,31,31.10
2014,09,15,15,32,31.10
2014,09,15,15,33,31.00
2014,09,15,15,34,30.90
2014,09,15,15,36,30.90
2014,09,15,15,37,30.90
2014,09,15,15,38,30.90
2014,09,15,15,39,30.90
2014,09,15,15,40,30.90
2014,09,15,15,41,30.90
2014,09,15,15,42,30.90
2014,09,15,15,43,30.90
2014,09,15,15,44,31.00
2014,09,15,15,45,31.10
2014,09,15,15,46,31.10
2014,09,15,15,47,31.10
2014,09,15,15,48,31.10
2014,09,15,15,49,31.10
2014,09,15,15,50,31.00
2014,09,15,15,51,30.90
2014,09,15,15,52,30.90
2014,09,15,15,53,30.90
2014,09,15,15,54,30.90
2014,09,15,15,55,30.90
2014,09,15,15,56,30.90
2014,09,15,15,57,30.90
2014,09,15,15,58,30.90
2014,09,15,15,59,30.80
2014,09,15,16,00,30.80
2014,09,15,16,01,30.80
2014,09,15,16,02,30.80
2014,09,15,16,03,30.80
2014,09,15,16,04,30.80
2014,09,15,16,05,30.80
2014,09,15,16,06,30.80
2014,09,15,16,07,30.80
2014,09,15,16,08,30.80
2014,09,15,16,09,30.80
2014,09,15,16,10,30.80
2014,09,15,16,11,30.80
2014,09,15,16,12,30.80
2014,09,15,16,13,30.80
2014,09,15,16,14,30.80
2014,09,15,16,15,30.80
2014,09,15,16,16,30.80
2014,09,15,16,17,30.70
2014,09,15,16,18,30.80
2014,09,15,16,19,30.80
2014,09,15,16,20,30.80
2014,09,15,16,21,30.80
2014,09,15,16,22,30.80
2014,09,15,16,23,30.80
2014,09,15,16,25,30.80
2014,09,15,16,26,30.80
2014,09,15,16,27,30.80
2014,09,15,16,28,30.90
2014,09,15,16,30,30.90
2014,09,15,16,31,30.90
2014,09,15,16,32,30.90
2014,09,15,16,33,30.90
2014,09,15,16,34,30.90
2014,09,15,16,35,31.00
2014,09,15,16,36,31.00
2014,09,15,16,37,31.00
2014,09,15,16,38,31.00
2014,09,15,16,39,31.00
2014,09,15,16,40,30.90
2014,09,15,16,41,30.90
2014,09,15,16,42,30.90
2014,09,15,16,43,30.80
2014,09,15,16,44,30.80
2014,09,15,16,45,30.80
2014,09,15,16,46,30.70
2014,09,15,16,47,30.70
2014,09,15,16,48,30.70
2014,09,15,16,49,30.70
2014,09,15,16,50,30.70
2014,09,15,16,51,30.70
2014,09,15,16,52,30.70
2014,09,15,16,53,30.70
2014,09,15,16,54,30.70
2014,09,15,16,55,30.60
2014,09,15,16,56,30.60
2014,09,15,16,57,30.60
2014,09,15,16,58,30.60
2014,09,15,16,59,30.50
2014,09,15,17,00,30.50
2014,09,15,17,01,30.50
2014,09,15,17,02,30.50
2014,09,15,17,03,30.50
2014,09,15,17,04,30.50
2014,09,15,17,05,30.50
2014,09,15,17,06,30.50
2014,09,15,17,07,30.40
2014,09,15,17,08,30.40
2014,09,15,17,09,30.40
2014,09,15,17,10,30.40
2014,09,15,17,11,30.40
2014,09,15,17,12,30.40
2014,09,15,17,13,30.40
2014,09,15,17,14,30.40
2014,09,15,17,15,30.30
2014,09,15,17,16,30.30
2014,09,15,17,17,30.30
2014,09,15,17,19,30.30
2014,09,15,17,20,30.30
2014,09,15,17,21,30.30
2014,09,15,17,22,30.20
2014,09,15,17,23,30.20
2014,09,15,17,24,30.10
2014,09,15,17,25,30.10
2014,09,15,17,26,30.10
2014,09,15,17,27,30.00
2014,09,15,17,28,29.90
2014,09,15,17,29,29.90
2014,09,15,17,30,29.90
2014,09,15,17,31,29.80
2014,09,15,17,32,29.80
2014,09,15,17,33,29.80
2014,09,15,17,34,29.80
2014,09,15,17,36,29.70
2014,09,15,17,37,29.70
2014,09,15,17,38,29.70
2014,09,15,17,39,29.70
2014,09,15,17,40,29.70
2014,09,15,17,41,29.70
2014,09,15,17,42,29.60
2014,09,15,17,43,29.60
2014,09,15,17,44,29.60
2014,09,15,17,45,29.60
2014,09,15,17,46,29.60
2014,09,15,17,47,29.60
2014,09,15,17,48,29.60
2014,09,15,17,49,29.60
2014,09,15,17,50,29.50
2014,09,15,17,51,29.50
2014,09,15,17,52,29.50
2014,09,15,17,53,29.50
2014,09,15,17,54,29.50
2014,09,15,17,55,29.40
2014,09,15,17,56,29.40
2014,09,15,17,58,29.40
2014,09,15,17,59,29.40
2014,09,15,18,00,29.40